Overview Statistics Trail Chart Weather Telemetry Raw packets
 

This is the latest recevied weather packets stored in our database for station/object CT1EDG-13. If no packets are shown the sender has not sent any weather packets the latest 10 day(s).

<< 1 2 3 4 5 6 >>
Time Temp. Humidity Pressure Rain* Wind** Luminosity Snow
1788606840 31.67° C 63% 1008.5 hPa 0 mm - - -
1788606838 31.67° C 63% 1008.5 hPa 0 mm - - -
1788606239 32.22° C 65% 1008.6 hPa 0 mm - - -
1788606238 32.22° C 65% 1008.6 hPa 0 mm - - -
1788605640 31.67° C 66% 1008.6 hPa 0 mm - - -
1788605638 31.67° C 66% 1008.6 hPa 0 mm - - -
1788605039 30.56° C 69% 1008.6 hPa 0 mm - - -
1788605037 30.56° C 69% 1008.6 hPa 0 mm - - -
1788604440 31.67° C 66% 1008.6 hPa 0 mm - - -
1788604437 31.67° C 66% 1008.6 hPa 0 mm - - -
1788603840 30.56° C 68% 1008.6 hPa 0 mm - - -
1788603837 30.56° C 68% 1008.6 hPa 0 mm - - -
1788603239 30° C 69% 1008.7 hPa 0 mm - - -
1788603237 30° C 69% 1008.7 hPa 0 mm - - -
1788602638 30° C 73% 1008.6 hPa 0 mm - - -
1788602637 30° C 73% 1008.6 hPa 0 mm - - -
1788602039 30.56° C 72% 1008.6 hPa 0 mm - - -
1788602037 30.56° C 72% 1008.6 hPa 0 mm - - -
1788601438 29.44° C 74% 1008.5 hPa 0 mm - - -
1788601437 29.44° C 74% 1008.5 hPa 0 mm - - -
1788600838 29.44° C 71% 1008.5 hPa 0 mm - - -
1788600837 29.44° C 71% 1008.5 hPa 0 mm - - -
1788600239 28.89° C 78% 1008.5 hPa 0 mm - - -
1788600237 28.89° C 78% 1008.5 hPa 0 mm - - -
1788599638 28.89° C 79% 1008.4 hPa 0 mm - - -

* Rain latest hour (hover to see other rain measurements)
** Current wind speed in m/s (hover to see current wind gust speed)